Weather in Solonovka

Russia / Altai Krai     52°00′17″N   84°37′34″E
temp.,
°C
wind,
m/s
gust,
m/s
humid.,
%
clouds,
%
prec.,
mm/h
press.,
hPa
HPBL,
m
15 april, thu
thu1501:00+2ssw348497 0.0 102951
04:00+1ssw348471 0.0 102847
07:00+1s228697 0.0 102832
10:00+3s2199100 0.0 102827
13:00+5nnw119778 0.0 102752
16:00+5n119481 0.1 1027215
19:00+4sse1110096 0.1 102617
22:00+3s229891 0.0 102615
16 april, fri
fri1601:00+1s329042 0.0 102525
04:00+2s329299 0.0 102433
07:00+2s329147 0.0 102330
10:00+8ssw228517 0.0 1021124
13:00+12w23629 0.0 1020831
16:00+13w24611 0.0 1019903
19:00+10sw22771 0.0 101813
22:00+7s33810 0.0 101831
17 april, sat
sat1701:00+5s34815 0.0 101738
04:00+5ssw2384100 0.0 101632
07:00+3ssw1191100 0.0 101713
10:00+6n2190100 0.0 1016251
13:00+5n2294100 0.1 1016298
16:00+3n2294100 0.1 1016278
19:00+2nw1295100 0.2 1018273
22:00+2wnw3698100 0.1 1020539
18 april, sun
sun1801:00+2sw2693100 0.2 1022323
04:00+1wnw2383100 0.1 1022114
07:00−1e119161 0.1 102412
10:00+3ne2170100 0.0 1022592
13:00+6n235998 0.0 10201123
16:00+7n3461100 0.0 1017824
19:00+7nne1467100 0.0 1015211
22:00+5sse3575100 0.0 101175
19 april, mon
mon1901:00+5s3671100 0.0 100883
04:00+7sw51463100 0.1 1007602
07:00+6wsw61285100 0.6 10081192
10:00+2wnw71297100 2.9 1012989
13:00+2w9155299 3.8 10161493
16:00+3w7114694 0.0 10181989
19:00+2wnw595099 0.0 10191920
22:00−1nw246899 0.0 1021137